Time,TemperatureF,DewpointF,PressureIn,WindDirection,WindDirectionDegrees,WindSpeedMPH,WindSpeedGustMPH,Humidity,HourlyPrecipIn,Conditions,Clouds,dailyrainin,SoftwareType,DateUTC
2013-06-06 00:01:00,42.0,33.0,30.15,SW,214,0.0,-999.0,71,-99.99,,,-99.99,,2013-06-06 06:01:00,
2013-06-06 00:11:00,42.0,33.0,30.15,SW,214,0.0,-999.0,71,-99.99,,,-99.99,,2013-06-06 06:11:00,
2013-06-06 00:22:00,41.0,33.0,30.16,NW,316,1.0,-999.0,72,-99.99,,,-99.99,,2013-06-06 06:22:00,
2013-06-06 00:32:00,40.0,33.0,30.16,NW,316,1.0,-999.0,75,-99.99,,,-99.99,,2013-06-06 06:32:00,
2013-06-06 00:42:00,40.0,33.0,30.16,NW,316,1.0,-999.0,75,-99.99,,,-99.99,,2013-06-06 06:42:00,
2013-06-06 00:52:00,39.0,32.0,30.16,NW,316,0.0,-999.0,77,-99.99,,,-99.99,,2013-06-06 06:52:00,
2013-06-06 01:02:00,39.0,32.0,30.16,NW,316,0.0,-999.0,77,-99.99,,,-99.99,,2013-06-06 07:02:00,
2013-06-06 01:22:00,38.0,32.0,30.16,NNW,329,1.0,-999.0,79,-99.99,,,-99.99,,2013-06-06 07:22:00,
2013-06-06 01:32:00,38.0,32.0,30.17,NNW,329,0.0,-999.0,78,-99.99,,,-99.99,,2013-06-06 07:32:00,
2013-06-06 01:42:00,38.0,32.0,30.17,NNW,329,0.0,-999.0,78,-99.99,,,-99.99,,2013-06-06 07:42:00,
2013-06-06 01:52:00,37.0,32.0,30.17,NNW,329,0.0,-999.0,82,-99.99,,,-99.99,,2013-06-06 07:52:00,
2013-06-06 02:02:00,40.0,34.0,30.17,NNW,329,2.0,-999.0,80,-99.99,,,-99.99,,2013-06-06 08:02:00,
2013-06-06 02:11:00,40.0,34.0,30.17,NNW,329,2.0,-999.0,80,-99.99,,,-99.99,,2013-06-06 08:11:00,
2013-06-06 02:22:00,39.0,33.0,30.17,NNW,329,0.0,-999.0,78,-99.99,,,-99.99,,2013-06-06 08:22:00,
2013-06-06 02:31:00,38.0,32.0,30.17,NNW,329,1.0,-999.0,78,-99.99,,,-99.99,,2013-06-06 08:31:00,
2013-06-06 02:42:00,36.0,31.0,30.17,NNW,329,1.0,-999.0,83,-99.99,,,-99.99,,2013-06-06 08:42:00,
2013-06-06 02:52:00,36.0,31.0,30.17,NNW,329,1.0,-999.0,83,-99.99,,,-99.99,,2013-06-06 08:52:00,
2013-06-06 03:01:00,36.0,33.0,30.17,NNW,329,1.0,-999.0,87,-99.99,,,-99.99,,2013-06-06 09:01:00,
2013-06-06 03:12:00,36.0,33.0,30.17,NNW,329,1.0,-999.0,87,-99.99,,,-99.99,,2013-06-06 09:12:00,
2013-06-06 03:22:00,36.0,31.0,30.17,NNW,329,1.0,-999.0,82,-99.99,,,-99.99,,2013-06-06 09:22:00,
2013-06-06 03:32:00,34.0,29.0,30.18,NNW,329,0.0,-999.0,81,-99.99,,,-99.99,,2013-06-06 09:32:00,
2013-06-06 03:42:00,34.0,29.0,30.18,NNW,329,0.0,-999.0,81,-99.99,,,-99.99,,2013-06-06 09:42:00,
2013-06-06 03:53:00,35.0,32.0,30.18,NNW,329,0.0,-999.0,89,-99.99,,,-99.99,,2013-06-06 09:53:00,
2013-06-06 04:02:00,37.0,33.0,30.18,NNW,329,0.0,-999.0,84,-99.99,,,-99.99,,2013-06-06 10:02:00,
2013-06-06 04:12:00,35.0,30.0,30.18,NNW,329,1.0,-999.0,82,-99.99,,,-99.99,,2013-06-06 10:12:00,
2013-06-06 04:22:00,35.0,30.0,30.18,NNW,329,1.0,-999.0,82,-99.99,,,-99.99,,2013-06-06 10:22:00,
2013-06-06 04:32:00,34.0,30.0,30.18,NNW,329,0.0,-999.0,84,-99.99,,,-99.99,,2013-06-06 10:32:00,
2013-06-06 04:41:00,34.0,30.0,30.18,NNW,329,0.0,-999.0,84,-99.99,,,-99.99,,2013-06-06 10:41:00,
2013-06-06 04:52:00,34.0,30.0,30.18,NNW,329,1.0,-999.0,86,-99.99,,,-99.99,,2013-06-06 10:52:00,
2013-06-06 05:02:00,34.0,30.0,30.18,NNW,329,1.0,-999.0,86,-99.99,,,-99.99,,2013-06-06 11:02:00,
2013-06-06 05:12:00,34.0,30.0,30.18,NNW,329,1.0,-999.0,86,-99.99,,,-99.99,,2013-06-06 11:12:00,
2013-06-06 05:22:00,33.0,29.0,30.17,NNW,329,0.0,-999.0,86,-99.99,,,-99.99,,2013-06-06 11:22:00,
2013-06-06 05:32:00,33.0,30.0,30.18,NNW,329,0.0,-999.0,87,-99.99,,,-99.99,,2013-06-06 11:32:00,
2013-06-06 05:42:00,33.0,30.0,30.18,NNW,329,0.0,-999.0,87,-99.99,,,-99.99,,2013-06-06 11:42:00,
2013-06-06 05:52:00,33.0,29.0,30.18,NNW,329,0.0,-999.0,86,-99.99,,,-99.99,,2013-06-06 11:52:00,
2013-06-06 06:02:00,33.0,30.0,30.18,NNW,329,0.0,-999.0,87,-99.99,,,-99.99,,2013-06-06 12:02:00,
2013-06-06 06:12:00,33.0,30.0,30.18,NNW,329,0.0,-999.0,87,-99.99,,,-99.99,,2013-06-06 12:12:00,
2013-06-06 06:22:00,33.0,30.0,30.18,NNW,329,0.0,-999.0,90,-99.99,,,-99.99,,2013-06-06 12:22:00,
2013-06-06 06:32:00,34.0,31.0,30.19,WSW,258,0.0,-999.0,89,-99.99,,,-99.99,,2013-06-06 12:32:00,
2013-06-06 06:42:00,37.0,33.0,30.22,WSW,258,0.0,-999.0,85,-99.99,,,-99.99,,2013-06-06 12:42:00,
2013-06-06 06:52:00,37.0,33.0,30.22,WSW,258,0.0,-999.0,85,-99.99,,,-99.99,,2013-06-06 12:52:00,
2013-06-06 07:02:00,40.0,35.0,30.22,WSW,258,0.0,-999.0,81,-99.99,,,-99.99,,2013-06-06 13:02:00,
2013-06-06 07:22:00,43.0,36.0,30.22,WSW,258,0.0,-999.0,76,-99.99,,,-99.99,,2013-06-06 13:22:00,
2013-06-06 07:32:00,45.0,35.0,30.22,NNW,327,1.0,-999.0,69,-99.99,,,-99.99,,2013-06-06 13:32:00,
2013-06-06 07:42:00,45.0,35.0,30.22,NNW,327,1.0,-999.0,69,-99.99,,,-99.99,,2013-06-06 13:42:00,
2013-06-06 07:52:00,46.0,36.0,30.22,NW,325,2.0,-999.0,67,-99.99,,,-99.99,,2013-06-06 13:52:00,
2013-06-06 08:02:00,48.0,37.0,30.22,NW,325,1.0,-999.0,65,-99.99,,,-99.99,,2013-06-06 14:02:00,
2013-06-06 08:22:00,49.0,37.0,30.22,NW,317,1.0,-999.0,62,-99.99,,,-99.99,,2013-06-06 14:22:00,
2013-06-06 08:32:00,51.0,38.0,30.21,NNW,340,2.0,-999.0,60,-99.99,,,-99.99,,2013-06-06 14:32:00,
2013-06-06 08:42:00,51.0,38.0,30.21,NNW,340,2.0,-999.0,60,-99.99,,,-99.99,,2013-06-06 14:42:00,
2013-06-06 08:52:00,52.0,37.0,30.21,North,9,2.0,-999.0,57,-99.99,,,-99.99,,2013-06-06 14:52:00,
2013-06-06 09:02:00,53.0,37.0,30.21,West,261,2.0,-999.0,54,-99.99,,,-99.99,,2013-06-06 15:02:00,
2013-06-06 09:12:00,53.0,37.0,30.21,West,261,2.0,-999.0,54,-99.99,,,-99.99,,2013-06-06 15:12:00,
2013-06-06 09:22:00,54.0,37.0,30.20,NNW,331,1.0,-999.0,52,-99.99,,,-99.99,,2013-06-06 15:22:00,
2013-06-06 09:32:00,56.0,38.0,30.20,NNW,332,1.0,-999.0,50,-99.99,,,-99.99,,2013-06-06 15:32:00,
2013-06-06 09:42:00,56.0,38.0,30.20,NNW,332,1.0,-999.0,50,-99.99,,,-99.99,,2013-06-06 15:42:00,
2013-06-06 09:53:00,57.0,37.0,30.20,NW,321,2.0,-999.0,47,-99.99,,,-99.99,,2013-06-06 15:53:00,
2013-06-06 10:02:00,58.0,37.0,30.20,NNE,15,1.0,-999.0,46,-99.99,,,-99.99,,2013-06-06 16:02:00,
2013-06-06 10:12:00,58.0,37.0,30.20,NNE,15,1.0,-999.0,46,-99.99,,,-99.99,,2013-06-06 16:12:00,
2013-06-06 10:22:00,58.0,37.0,30.20,NNE,15,1.0,-999.0,46,-99.99,,,-99.99,,2013-06-06 16:22:00,
2013-06-06 10:33:00,60.0,39.0,30.19,NW,304,1.0,-999.0,45,-99.99,,,-99.99,,2013-06-06 16:33:00,
2013-06-06 10:42:00,60.0,39.0,30.19,NW,304,1.0,-999.0,45,-99.99,,,-99.99,,2013-06-06 16:42:00,
2013-06-06 10:53:00,62.0,37.0,30.20,South,180,1.0,-999.0,40,-99.99,,,-99.99,,2013-06-06 16:53:00,
2013-06-06 11:03:00,64.0,40.0,30.20,SE,144,2.0,-999.0,42,-99.99,,,-99.99,,2013-06-06 17:03:00,
2013-06-06 11:12:00,65.0,41.0,30.19,ESE,121,1.0,-999.0,42,-99.99,,,-99.99,,2013-06-06 17:12:00,
2013-06-06 11:22:00,65.0,41.0,30.19,ESE,121,1.0,-999.0,42,-99.99,,,-99.99,,2013-06-06 17:22:00,
2013-06-06 11:42:00,66.0,40.0,30.19,SSE,153,2.0,-999.0,39,-99.99,,,-99.99,,2013-06-06 17:42:00,
2013-06-06 11:53:00,67.0,40.0,30.19,South,189,3.0,-999.0,37,-99.99,,,-99.99,,2013-06-06 17:53:00,
2013-06-06 12:22:00,68.0,38.0,30.18,SSE,166,1.0,-999.0,33,-99.99,,,-99.99,,2013-06-06 18:22:00,
2013-06-06 12:33:00,68.0,38.0,30.18,SE,141,2.0,-999.0,33,-99.99,,,-99.99,,2013-06-06 18:33:00,
2013-06-06 12:42:00,68.0,38.0,30.18,SE,141,2.0,-999.0,33,-99.99,,,-99.99,,2013-06-06 18:42:00,
2013-06-06 12:53:00,69.0,39.0,30.17,SE,131,1.0,-999.0,33,-99.99,,,-99.99,,2013-06-06 18:53:00,
2013-06-06 13:02:00,70.0,37.0,30.17,WSW,249,2.0,-999.0,30,-99.99,,,-99.99,,2013-06-06 19:02:00,
2013-06-06 13:12:00,70.0,37.0,30.17,WSW,249,2.0,-999.0,30,-99.99,,,-99.99,,2013-06-06 19:12:00,
2013-06-06 13:23:00,71.0,38.0,30.16,SE,136,2.0,-999.0,30,-99.99,,,-99.99,,2013-06-06 19:23:00,
2013-06-06 13:32:00,71.0,36.0,30.16,SSW,200,3.0,-999.0,28,-99.99,,,-99.99,,2013-06-06 19:32:00,
2013-06-06 13:42:00,71.0,36.0,30.16,SSW,200,3.0,-999.0,28,-99.99,,,-99.99,,2013-06-06 19:42:00,
2013-06-06 13:53:00,72.0,40.0,30.16,SSE,154,2.0,-999.0,31,-99.99,,,-99.99,,2013-06-06 19:53:00,
2013-06-06 14:02:00,71.0,38.0,30.16,South,169,3.0,-999.0,30,-99.99,,,-99.99,,2013-06-06 20:02:00,
2013-06-06 14:12:00,71.0,38.0,30.16,South,169,3.0,-999.0,30,-99.99,,,-99.99,,2013-06-06 20:12:00,
2013-06-06 14:22:00,72.0,37.0,30.15,South,175,3.0,-999.0,28,-99.99,,,-99.99,,2013-06-06 20:22:00,
2013-06-06 14:32:00,71.0,38.0,30.15,SSW,210,2.0,-999.0,30,-99.99,,,-99.99,,2013-06-06 20:32:00,
2013-06-06 14:42:00,71.0,38.0,30.15,SSW,210,2.0,-999.0,30,-99.99,,,-99.99,,2013-06-06 20:42:00,
2013-06-06 14:53:00,72.0,39.0,30.15,SE,134,2.0,-999.0,30,-99.99,,,-99.99,,2013-06-06 20:53:00,
2013-06-06 15:02:00,72.0,41.0,30.14,South,177,2.0,-999.0,32,-99.99,,,-99.99,,2013-06-06 21:02:00,
2013-06-06 15:12:00,72.0,41.0,30.14,South,177,2.0,-999.0,32,-99.99,,,-99.99,,2013-06-06 21:12:00,
2013-06-06 15:22:00,73.0,41.0,30.16,SE,136,2.0,-999.0,31,-99.99,,,-99.99,,2013-06-06 21:22:00,
2013-06-06 15:32:00,72.0,41.0,30.16,South,189,3.0,-999.0,33,-99.99,,,-99.99,,2013-06-06 21:32:00,
2013-06-06 15:43:00,72.0,41.0,30.16,South,189,3.0,-999.0,33,-99.99,,,-99.99,,2013-06-06 21:43:00,
2013-06-06 15:53:00,73.0,40.0,30.16,SSW,196,3.0,-999.0,30,-99.99,,,-99.99,,2013-06-06 21:53:00,
2013-06-06 16:02:00,72.0,42.0,30.15,East,98,2.0,-999.0,34,-99.99,,,-99.99,,2013-06-06 22:02:00,
2013-06-06 16:12:00,72.0,42.0,30.15,East,98,2.0,-999.0,34,-99.99,,,-99.99,,2013-06-06 22:12:00,
2013-06-06 16:22:00,72.0,42.0,30.15,SSW,209,3.0,-999.0,34,-99.99,,,-99.99,,2013-06-06 22:22:00,
2013-06-06 16:33:00,72.0,40.0,30.14,SSW,204,2.0,-999.0,31,-99.99,,,-99.99,,2013-06-06 22:33:00,
2013-06-06 16:43:00,72.0,40.0,30.14,SSW,204,2.0,-999.0,31,-99.99,,,-99.99,,2013-06-06 22:43:00,
2013-06-06 16:53:00,70.0,38.0,30.14,West,267,7.0,-999.0,31,-99.99,,,-99.99,,2013-06-06 22:53:00,
2013-06-06 17:02:00,71.0,40.0,30.14,WSW,245,4.0,-999.0,33,-99.99,,,-99.99,,2013-06-06 23:02:00,
2013-06-06 17:12:00,71.0,40.0,30.14,WSW,245,4.0,-999.0,33,-99.99,,,-99.99,,2013-06-06 23:12:00,
2013-06-06 17:22:00,73.0,41.0,30.14,WNW,298,7.0,-999.0,31,-99.99,,,-99.99,,2013-06-06 23:22:00,
2013-06-06 17:33:00,73.0,39.0,30.14,WNW,284,7.0,-999.0,29,-99.99,,,-99.99,,2013-06-06 23:33:00,
2013-06-06 17:42:00,73.0,39.0,30.14,WNW,284,7.0,-999.0,29,-99.99,,,-99.99,,2013-06-06 23:42:00,
2013-06-06 17:52:00,74.0,40.0,30.13,WSW,252,6.0,-999.0,29,-99.99,,,-99.99,,2013-06-06 23:52:00,
2013-06-06 18:02:00,72.0,39.0,30.13,SSW,211,6.0,-999.0,30,-99.99,,,-99.99,,2013-06-07 00:02:00,
2013-06-06 18:12:00,72.0,39.0,30.13,SSW,211,6.0,-999.0,30,-99.99,,,-99.99,,2013-06-07 00:12:00,
2013-06-06 18:22:00,72.0,40.0,30.12,SW,236,5.0,-999.0,31,-99.99,,,-99.99,,2013-06-07 00:22:00,
2013-06-06 18:32:00,72.0,40.0,30.12,SW,236,5.0,-999.0,31,-99.99,,,-99.99,,2013-06-07 00:32:00,
2013-06-06 18:42:00,72.0,40.0,30.12,SW,236,5.0,-999.0,31,-99.99,,,-99.99,,2013-06-07 00:42:00,
2013-06-06 18:52:00,72.0,40.0,30.12,SW,236,5.0,-999.0,31,-99.99,,,-99.99,,2013-06-07 00:52:00,
2013-06-06 19:02:00,72.0,40.0,30.12,SW,236,5.0,-999.0,31,-99.99,,,-99.99,,2013-06-07 01:02:00,